Regional Weather Roundup
Issued by NWS

Home | Current Version | Previous Version | Text Only | Print | Product List | Glossary On
Versions: 1 2 3 4 5 6 7 8 9 10 11 12 13 14 15 16 17 18 19 20 21 22 23 24 25 26 27 28 29 30 31 32 33 34 35 36 37 38 39 40 41 42 43 44 45 46 47 48 49 50
000
ASUS43 KLMK 061002
RWRKY
KENTUCKY REGIONAL WEATHER ROUNDUP
NATIONAL WEATHER SERVICE LOUISVILLE KY
500 AM EST FRI MAR 06 2015

NOTE "FAIR" INDICATES FEW OR NO CLOUDS BELOW 12,000 FEET
WITH NO SIGNIFICANT WEATHER AND/OR OBSTRUCTIONS TO VISIBILITY.

KYZ001>023-026-027-061>063-070>075-061100-
WESTERN AND SOUTH CENTRAL KENTUCKY

CITY           SKY/WX    TMP DP  RH WIND       PRES   REMARKS
PADUCAH        MOCLDY    -1  -5  82 CALM      30.58R
HENDERSON      PTCLDY    -6  -6 100 CALM      30.58F
OWENSBORO      PTCLDY     1  -2  88 CALM      30.58F
HOPKINSVILLE   MOCLDY     2  -2  84 CALM      30.55S
BOWLING GREEN  MOCLDY     5   1  83 CALM      30.56S
GLASGOW        NOT AVBL
$$

KYZ024-025-028>034-038-045-046-053-061100-
NORTH CENTRAL KENTUCKY

CITY           SKY/WX    TMP DP  RH WIND       PRES   REMARKS
LOUISVILLE/SDF FAIR      13   7  77 NE3       30.56S
LOUISVILLE/LOU PTCLDY     8   4  83 CALM      30.56S FOG
FORT KNOX      PTCLDY     1  -3  83 CALM      30.51F
$$

KYZ035>037-039>044-047>052-055>060-089>105-061100-
NORTHEAST KENTUCKY

CITY           SKY/WX    TMP DP  RH WIND       PRES   REMARKS
LEXINGTON      PTCLDY     0  -3  87 E6        30.51F WCI -12
COVINGTON      PTCLDY     4   0  83 CALM      30.52S
FRANKFORT      HAZE      -7 -12  79 CALM      30.52S VSB 3/4
$$

KYZ054-064>069-076>088-106>120-061100-
SOUTHEAST KENTUCKY

CITY           SKY/WX    TMP DP  RH WIND       PRES   REMARKS
JACKSON        PTCLDY     9   4  80 NE5       30.47R WCI   1
LONDON         PTCLDY     5  -2  72 CALM      30.48S
SOMERSET       NOT AVBL
MIDDLESBORO    PTCLDY    13  11  92 CALM      30.49R
MONTICELLO     FOG       -8 -12  83 CALM      30.54R VSB<1/4
$$



USA.gov is the U.S. government's official web portal to all federal, state and local government web resources and services.